Regional Weather Roundup
Issued by NWS

Home | Current Version | Previous Version | Text Only | Print | Product List | Glossary On
Versions: 1 2 3 4 5 6 7 8 9 10 11 12 13 14 15 16 17 18 19 20 21 22 23 24 25 26 27 28 29 30 31 32 33 34 35 36 37 38 39 40 41 42 43 44 45 46 47 48 49 50
000
ASUS44 KJAN 240110
RWRMS

MISSISSIPPI HOURLY WEATHER ROUNDUP
NATIONAL WEATHER SERVICE JACKSON MS
800 PM CDT TUE SEP 23 2014

NOTE: "FAIR: INDICATES FEW OR NO CLOUDS BELOW 12,000 FEET WITH NO
SIGNIFICANT WEATHER AND/OR OBSTRUCTIONS TO VISIBILITY.

MSZ001>002-007>008-010>013-018>021-025>028-034>036-240200-
NORTHWEST MISSISSIPPI

CITY           SKY/WX    TMP DP  RH WIND       PRES   REMARKS
CLARKSDALE     FAIR      66  52  59 N3        30.14S
CLEVELAND      FAIR      66  52  60 E7        30.12R
GREENWOOD      FAIR      65  57  75 N5        30.11S
GREENVILLE     CLEAR     67  46  47 NE5       30.11R
GRENADA        FAIR      63  57  82 CALM      30.13S
OLIVE BRANCH   PTCLDY    64  52  63 NE5       30.16S
OXFORD         FAIR      63  57  82 CALM      30.16S
TUNICA         CLEAR     63  52  67 NE5       30.15S
$$

MSZ003>006-009-014>017-022>024-029>033-037>039-240200-
NORTHEAST MISSISSIPPI

CITY           SKY/WX    TMP DP  RH WIND       PRES   REMARKS
COLUMBUS AFB   CLEAR     68  59  72 NE2       30.12R
CORINTH          N/A     66  52  59 CALM      30.15S
GOLDN TRIANGLE CLEAR     73  54  49 NE6       30.12
STARKVILLE     FAIR      66  55  68 CALM      30.12R HAZE
TUPELO         CLEAR     69  57  65 NE3       30.14R
$$

MSZ040-058-240200-
CENTRAL MISSISSIPPI

CITY           SKY/WX    TMP DP  RH WIND       PRES   REMARKS
JACKSON INTL   CLEAR     71  58  63 CALM      30.09S
JACKSON HAWKNS CLEAR     74  55  51 N3        30.10R
MERIDIAN KEY   CLEAR     67  58  72 CALM      30.09R
MERIDIAN NAS   CLEAR     75  52  44 NE5       30.10S
RAYMOND        FAIR      64  59  82 CALM      30.10R
VICKSBURG      CLEAR     65  56  72 N5        30.09S
$$

MSZ059>079-240200-
SOUTH MISSISSIPPI

CITY           SKY/WX    TMP DP  RH WIND       PRES   REMARKS
BROOKHAVEN     FAIR      66  59  77 CALM      30.10S
COLUMBIA       FAIR      66  61  82 CALM      30.06S
HATTIESBURG    CLEAR     70  60  70 CALM      30.07S
MCCOMB         CLEAR     75  55  49 NE3       30.07S
NATCHEZ        CLEAR     64  57  77 CALM      30.09R
PINE BELT      CLEAR     66  55  68 CALM      30.09S
$$

MSZ080>082-240200-
COASTAL MISSISSIPPI

CITY           SKY/WX    TMP DP  RH WIND       PRES   REMARKS
BAY ST LOUIS   CLEAR     75  54  46 E3        30.05R
BILOXI         CLEAR     75  55  48 E6        30.05R
PASCAGOULA     CLEAR     67  58  72 NE3       30.06R
GULFPORT       CLEAR     77  58  51 NE3       30.05R
$$



USA.gov is the U.S. government's official web portal to all federal, state and local government web resources and services.